| time (UTC) | temp C | wind direction | speed KPH | gust KPH | rain 1hr cm | rain 24hr cm | rain mn cm | humidity % | barometer mb |
| 20260505223057 | 20 | 328 | 0.0 | 1.6 | 0.00 | 1.09 | 0.05 | 62 | 1014.2 |
| 20260505221557 | 19 | 316 | 0.0 | 0.0 | 0.00 | 1.09 | 0.05 | 63 | 1014.4 |
| 20260505220043 | 19 | 309 | 0.0 | 4.8 | 0.00 | 1.09 | 0.05 | 66 | 1014.5 |
| 20260505214547 | 19 | 290 | 0.0 | 1.6 | 0.00 | 1.09 | 0.05 | 66 | 1014.6 |
| 20260505213043 | 19 | 304 | 0.0 | 6.4 | 0.00 | 1.09 | 0.05 | 69 | 1014.6 |
| 20260505211540 | 18 | 336 | 0.0 | 0.0 | 0.00 | 1.09 | 0.05 | 67 | 1014.7 |
| 20260505210043 | 18 | 194 | 0.0 | 0.0 | 0.00 | 1.09 | 0.05 | 70 | 1014.7 |
| 20260505204540 | 18 | 215 | 0.0 | 1.6 | 0.00 | 1.09 | 0.05 | 69 | 1014.8 |
| 20260505203040 | 18 | 323 | 0.0 | 0.0 | 0.00 | 1.09 | 0.05 | 71 | 1014.8 |
| 20260505201541 | 17 | 191 | 0.0 | 0.0 | 0.00 | 1.09 | 0.05 | 72 | 1014.8 |
| 20260505200046 | 17 | 276 | 0.0 | 0.0 | 0.00 | 1.09 | 0.05 | 72 | 1015.0 |
| 20260505194541 | 17 | 202 | 0.0 | 0.0 | 0.00 | 1.09 | 0.05 | 74 | 1015.1 |
| 20260505193040 | 17 | 310 | 0.0 | 0.0 | 0.00 | 1.09 | 0.05 | 74 | 1015.0 |
| 20260505191540 | 16 | 188 | 0.0 | 0.0 | 0.00 | 1.09 | 0.05 | 75 | 1015.1 |
| 20260505190047 | 16 | 238 | 0.0 | 1.6 | 0.00 | 1.09 | 0.05 | 77 | 1015.1 |
| 20260505184540 | 16 | 261 | 0.0 | 0.0 | 0.00 | 1.09 | 0.05 | 75 | 1015.0 |
| 20260505183047 | 16 | 197 | 0.0 | 0.0 | 0.00 | 1.09 | 0.05 | 76 | 1014.8 |
| 20260505181540 | 15 | 278 | 0.0 | 1.6 | 0.00 | 1.09 | 0.05 | 79 | 1014.9 |
| 20260505180041 | 15 | 165 | 0.0 | 0.0 | 0.00 | 1.09 | 0.05 | 78 | 1014.8 |
| 20260505174545 | 15 | 323 | 0.0 | 0.0 | 0.00 | 1.09 | 0.05 | 80 | 1014.7 |
| 20260505173046 | 15 | 252 | 0.0 | 0.0 | 0.00 | 1.09 | 0.05 | 83 | 1014.6 |
| 20260505171555 | 14 | 288 | 0.0 | 0.0 | 0.00 | 1.09 | 0.05 | 85 | 1014.7 |
| 20260505170054 | 13 | 278 | 0.0 | 1.6 | 0.00 | 1.09 | 0.05 | 86 | 1014.7 |
| 20260505164616 | 13 | 244 | 0.0 | 1.6 | 0.00 | 1.09 | 0.05 | 88 | 1014.6 |
| 20260505163055 | 13 | 321 | 0.0 | 0.0 | 0.00 | 1.09 | 0.05 | 90 | 1014.6 |
| 20260505161558 | 12 | 290 | 0.0 | 0.0 | 0.00 | 1.09 | 0.05 | 91 | 1014.6 |
| 20260505160107 | 12 | 213 | 0.0 | 1.6 | 0.00 | 1.09 | 0.05 | 91 | 1014.5 |
| 20260505153109 | 12 | 236 | 0.0 | 1.6 | 0.00 | 1.09 | 0.05 | 93 | 1014.5 |
| 20260505151511 | 12 | 207 | 0.0 | 3.2 | 0.00 | 1.09 | 0.05 | 93 | 1014.3 |
| 20260505124543 | 11 | 216 | 0.0 | 0.0 | 0.00 | 1.09 | 0.05 | 95 | 1013.5 |
| 20260505123039 | 11 | 218 | 0.0 | 0.0 | 0.00 | 1.09 | 0.05 | 95 | 1013.4 |
| 20260505121558 | 11 | 179 | 0.0 | 0.0 | 0.00 | 1.09 | 0.05 | 95 | 1013.4 |
| 20260505120113 | 11 | 245 | 0.0 | 0.0 | 0.00 | 1.09 | 0.05 | 95 | 1013.6 |
| 20260505114558 | 11 | 219 | 0.0 | 1.6 | 0.00 | 1.09 | 0.05 | 95 | 1013.6 |
| 20260505113058 | 11 | 236 | 0.0 | 0.0 | 0.00 | 1.09 | 0.05 | 95 | 1013.6 |
| 20260505111558 | 11 | 224 | 0.0 | 1.6 | 0.00 | 1.09 | 0.05 | 95 | 1013.6 |
| 20260505110108 | 11 | 236 | 0.0 | 1.6 | 0.00 | 1.09 | 0.05 | 95 | 1013.6 |
| 20260505101600 | 11 | 266 | 0.0 | 1.6 | 0.03 | 1.09 | 0.05 | 95 | 1013.6 |
| 20260505100058 | 11 | 229 | 0.0 | 1.6 | 0.03 | 1.09 | 0.05 | 95 | 1013.6 |
| 20260505094557 | 11 | 196 | 0.0 | 0.0 | 0.00 | 1.07 | 0.03 | 95 | 1013.9 |
| 20260505093100 | 11 | 232 | 0.0 | 0.0 | 0.00 | 1.07 | 0.03 | 95 | 1013.9 |
| 20260505091609 | 11 | 294 | 0.0 | 0.0 | 0.00 | 1.07 | 0.03 | 95 | 1014.1 |
| 20260505090058 | 11 | 302 | 0.0 | 0.0 | 0.00 | 1.07 | 0.03 | 95 | 1014.1 |
| 20260505084558 | 11 | 242 | 0.0 | 1.6 | 0.00 | 1.07 | 0.03 | 95 | 1014.3 |
| 20260505083058 | 11 | 249 | 0.0 | 0.0 | 0.03 | 1.07 | 0.03 | 95 | 1014.4 |
| 20260505081558 | 11 | 285 | 0.0 | 0.0 | 0.03 | 1.07 | 0.03 | 95 | 1014.4 |
| 20260505080106 | 11 | 250 | 0.0 | 0.0 | 0.03 | 1.07 | 0.03 | 95 | 1014.3 |
| 20260505074534 | 11 | 290 | 0.0 | 0.0 | 0.05 | 1.07 | 0.03 | 94 | 1014.3 |
| 20260505073046 | 11 | 229 | 0.0 | 0.0 | 0.08 | 1.04 | 0.00 | 94 | 1014.6 |
| 20260505071542 | 11 | 175 | 0.0 | 0.0 | 0.10 | 1.04 | 0.00 | 94 | 1014.5 |
| 20260505070051 | 11 | 175 | 0.0 | 0.0 | 0.18 | 1.04 | 1.04 | 94 | 1014.6 |
| 20260505064542 | 11 | 175 | 0.0 | 0.0 | 0.20 | 1.02 | 1.02 | 94 | 1014.2 |
| 20260505063052 | 11 | 175 | 0.0 | 0.0 | 0.20 | 0.97 | 0.97 | 94 | 1014.5 |
| 20260505061544 | 11 | 175 | 0.0 | 0.0 | 0.18 | 0.91 | 0.91 | 94 | 1014.5 |
| 20260505060042 | 11 | 175 | 0.0 | 0.0 | 0.13 | 0.86 | 0.86 | 93 | 1014.1 |
| 20260505054542 | 11 | 175 | 0.0 | 0.0 | 0.08 | 0.81 | 0.81 | 93 | 1014.3 |
| 20260505053052 | 12 | 210 | 0.0 | 0.0 | 0.08 | 0.76 | 0.76 | 92 | 1014.4 |
| 20260505051542 | 11 | 193 | 0.0 | 0.0 | 0.10 | 0.71 | 0.71 | 93 | 1014.2 |
| 20260505041552 | 12 | 187 | 0.0 | 0.0 | 0.20 | 0.64 | 0.64 | 92 | 1014.6 |
| 20260505040050 | 12 | 188 | 0.0 | 0.0 | 0.23 | 0.58 | 0.58 | 91 | 1014.5 |
| 20260505034541 | 12 | 188 | 0.0 | 0.0 | 0.23 | 0.56 | 0.56 | 91 | 1014.5 |
| 20260505033041 | 12 | 188 | 0.0 | 0.0 | 0.18 | 0.51 | 0.51 | 91 | 1014.3 |
| 20260505031537 | 12 | 188 | 0.0 | 0.0 | 0.08 | 0.41 | 0.41 | 89 | 1014.4 |
| 20260505030011 | 12 | 188 | 0.0 | 0.0 | 0.03 | 0.36 | 0.36 | 88 | 1014.4 |
| 20260505024511 | 12 | 162 | 0.0 | 4.8 | 0.03 | 0.33 | 0.33 | 87 | 1013.8 |
| 20260505023011 | 12 | 166 | 0.0 | 8.0 | 0.03 | 0.33 | 0.33 | 88 | 1013.5 |
| 20260505021511 | 12 | 148 | 0.0 | 0.0 | 0.03 | 0.33 | 0.33 | 91 | 1013.7 |
| 20260505020111 | 12 | 220 | 0.0 | 0.0 | 0.05 | 0.33 | 0.33 | 90 | 1013.8 |
| 20260505014608 | 12 | 173 | 0.0 | 0.0 | 0.05 | 0.30 | 0.30 | 91 | 1013.6 |
| 20260505013056 | 12 | 120 | 0.0 | 1.6 | 0.08 | 0.30 | 0.30 | 90 | 1013.7 |
| 20260505011606 | 12 | 146 | 0.0 | 0.0 | 0.13 | 0.30 | 0.30 | 90 | 1013.5 |
| 20260505010055 | 12 | 146 | 0.0 | 1.6 | 0.13 | 0.28 | 0.28 | 89 | 1013.9 |
| 20260505004612 | 13 | 119 | 0.0 | 1.6 | 0.13 | 0.25 | 0.25 | 91 | 1014.1 |
| 20260505003110 | 13 | 139 | 0.0 | 0.0 | 0.10 | 0.23 | 0.23 | 90 | 1014.2 |
| 20260505001609 | 13 | 170 | 0.0 | 0.0 | 0.08 | 0.18 | 0.18 | 89 | 1014.2 |
| 20260505000118 | 13 | 133 | 0.0 | 1.6 | 0.10 | 0.15 | 0.15 | 87 | 1014.3 |
| 20260504234510 | 13 | 176 | 0.0 | 0.0 | 0.08 | 0.13 | 0.13 | 87 | 1014.1 |
| 20260504233010 | 13 | 166 | 0.0 | 0.0 | 0.08 | 0.13 | 0.13 | 86 | 1014.1 |
| 20260504231510 | 13 | 169 | 0.0 | 0.0 | 0.05 | 0.08 | 0.08 | 86 | 1014.2 |
| 20260504230012 | 13 | 169 | 0.0 | 0.0 | 0.05 | 0.05 | 0.05 | 84 | 1014.3 |
| 20260504224524 | 13 | 179 | 0.0 | 0.0 | 0.05 | 0.05 | 0.05 | 84 | 1014.3 |